879  
ASUS41 KBOX 250404  
RWRBOX  
 
REGIONAL WEATHER ROUNDUP  
NATIONAL WEATHER SERVICE BOSTON/NORTON MA  
1200 AM EDT SAT SEP 25 2021  
 
NOTE: "FAIR" INDICATES FEW OR NO CLOUDS BELOW 12,000 FEET WITH NO  
SIGNIFICANT WEATHER AND/OR S TO VISIBILITY
.  
 
MAZALL-250500-  
EASTERN MASSACHUSETTS  
 
CITY SKY/WX TMP DP RH WIND PRES REMARKS
 
BOSTON CLOUDY 71 56 58 W5 30.05R  
BEVERLY CLOUDY 67 58 72 W3 30.03S  
LAWRENCE LGT RAIN 66 61 84 CALM 30.06R  
BEDFORD CLOUDY 65 61 87 CALM 30.04R  
BLUE HILL NOT AVBL  
NORWOOD CLOUDY 65 59 81 CALM 30.05R  
MARSHFIELD CLOUDY 70 66 88 CALM 30.04S  
PLYMOUTH LGT RAIN 69 64 84 CALM 30.05S  
TAUNTON CLOUDY 68 63 84 CALM 30.04S  
NEW BEDFORD MOCLDY 67 64 90 CALM 30.04S  

 
 
MAZALL-250500-  
CAPE COD AND THE ISLANDS  
 
CITY SKY/WX TMP DP RH WIND PRES REMARKS
 
FALMOUTH CLOUDY 68 66 94 CALM 30.05S  
HYANNIS RAIN 70 70 100 CALM 30.04S FOG  
CHATHAM HVY RAIN 67 67 100 CALM 30.07R VSB 1/2  
PROVINCETOWN LGT RAIN 69 68 96 S9 30.06R  
NANTUCKET LGT RAIN 71 69 93 SW5 30.04F  
MARTHAS VNYRD CLOUDY 65 65 100 W3 30.05R  

 
 
MAZALL-250500-  
CENTRAL AND WESTERN MASSACHUSETTS  
 
CITY SKY/WX TMP DP RH WIND PRES REMARKS
 
WORCESTER CLOUDY 61 57 87 W7 30.07R  
FITCHBURG CLOUDY 63 58 83 NW8 30.06R  
ORANGE CLEAR 55 55 100 CALM 30.08R FOG  
SPRINGFIELD CLEAR 55 55 100 CALM 30.05S  
WESTFIELD PTCLDY 53 53 100 CALM 30.07R FOG  
NORTH ADAMS NOT AVBL  
PITTSFIELD CLEAR 51 48 89 CALM 30.07S  

 
 
RIZALL-250500-  
RHODE ISLAND  
 
CITY SKY/WX TMP DP RH WIND PRES REMARKS
 
PROVIDENCE MOCLDY 65 60 84 W3 30.06R  
NEWPORT MOCLDY 64 60 87 NW6 30.05S  
BLOCK ISLAND MOCLDY 64 59 83 W3 30.06  
SMITHFIELD CLOUDY 62 60 93 W5 30.06S  
WESTERLY CLOUDY 59 59 100 CALM 30.06S  

 
 
CTZALL-250500-  
CONNECTICUT  
 
CITY SKY/WX TMP DP RH WIND PRES REMARKS
 
BRADLEY INTL PTCLDY 56 54 93 CALM 30.07R  
HARTFORD MOCLDY 60 58 92 CALM 30.05S  
BRIDGEPORT PTCLDY 62 54 74 NW5 30.06R  
DANBURY CLEAR 54 51 90 CALM 30.09R  
GROTON CLOUDY 62 61 96 N3 30.05S  
NEW HAVEN MOCLDY 63 61 93 CALM 30.06R  
CHESTER CLOUDY 63 61 94 CALM 30.07R  
MERIDEN PTCLDY 57 55 93 SE3 30.06R  
WILLIMANTIC CLOUDY 61 60 97 CALM 30.06S  
OXFORD CLEAR 54 53 97 NW6 30.08S  

 
 
MEZ002-015-021-024-NHZ003-005-008-011-012-014-VTZ005-008-250500-  
NORTHERN NEW ENGLAND  
 
CITY SKY/WX TMP DP RH WIND PRES REMARKS
 
PORTLAND ME LGT RAIN 64 63 96 S3 30.03R  
BANGOR ME TSTM 68 67 96 S14G24 30.03R FOG  
CONCORD NH NOT AVBL  
MANCHESTER NH MOCLDY 66 59 78 W5 30.03R  
NASHUA NH CLOUDY 64 64 100 CALM 30.06R  
PORTSMOUTH NH CLOUDY 65 60 83 SW3 30.04S  
JAFFREY NH CLEAR 56 56 100 CALM 30.08R  
KEENE NH FOG 57 57 100 CALM 30.07S VSB 1/4  
BURLINGTON VT MOCLDY 56 52 86 CALM 30.04S  
MT. WASHINGTON PTCLDY 45 28 53 SW36 N/A  

 
 
NYZ052-076-250500-  
EASTERN NEW YORK  
 
CITY SKY/WX TMP DP RH WIND PRES REMARKS
 
ALBANY CLEAR 52 51 97 CALM 30.06S  
NEW YORK CITY PTCLDY 68 50 52 NW5 30.06S  

 
 
ANZALL-250500-  
MARINE OBSERVATIONS  
 
STATION/POSITION TIME TEMP WIND PRES VSBY WAVE
 
AIR SEA DIR/SP/G HT/PER  
(UTC) (F) (DEG/KT/KT) (MB) (MI) (FT/S)  
BOSTON BUOY 0340 260/ 4/ 6 1017.3F  
BUZZARDS BAY 0300 290/ 10/ 11 1018.3F  
NANTUCKET SOUND 0330 68 72 280/ 4/ 8 1017.4R  
MASS BAY-STELLWA 0304 66 260/ 4/ 6 1016.5R 1 7/8 4/ 5  
ISLE OF SHOALS 0300 68 250/ 8/ 8 1016.4F  
S OF BLOCK IS 0326 71 N/A 4/ 7  

 
   
.....................KEY......................
 
 
SKY/WX - SKY CONDITION/PRESENT WEATHER  
TMP - TEMPERATURE IN FAHRENHEIT  
DWPT - DEWPOINT IN FAHRENHEIT  
RH - RELATIVE HUMIDITY IN PERCENT  
WIND - DIRECTION AND SPEED IN MPH  
PRES - MEAN SEA LEVEL PRESSURE IN INCHES OF HG  
WCI - WIND CHILL INDEX  
VSB - VISIBILITY IN MILES  
HX - HEAT INDEX  
TC - TEMPERATURE IN CELSIUS  
VRB - VARIABLE WIND DIRECTION  
N/A - NOT AVAILABLE  
 
 
CLICK HERE TO GO TO PREVIOUS BULLETINS.

The Nexlab MA Page
The Nexlab RI Page
The Nexlab NH Page
The Nexlab CT Page Main Text Page